Regional Weather Roundup
Issued by NWS

Home | Current Version | Previous Version | Graphics & Text | Print | Product List | Glossary On
Versions: 1 2 3 4 5 6 7 8 9 10 11 12 13 14 15 16 17 18 19 20 21 22 23 24 25 26 27 28 29 30 31 32 33 34 35 36 37 38 39 40 41 42 43 44 45 46 47 48 49 50
000
ASUS43 KTOP 220359
RWRKS

WEATHER ROUNDUP FOR KANSAS
NATIONAL WEATHER SERVICE GOODLAND KS
1000 PM CST TUE NOV 21 2017

NOTE:  "FAIR" INDICATES FEW OR NO CLOUDS BELOW 12,000 FEET WITH NO
SIGNIFICANT WEATHER AND/OR OBSTRUCTIONS TO VISIBILITY.

KSZ001>006-013>018-027>032-041>047-220500-
NORTHWEST KANSAS

CITY           SKY/WX    TMP DP  RH WIND       PRES   REMARKS
GOODLAND       CLEAR     32  24  72 S7        30.33S
HAYS           CLOUDY    27  13  55 NE7       30.41
HILL CITY      CLOUDY    23  15  71 SW3       30.40R
RUSSELL        CLOUDY    22  11  62 NW3       30.40R
$$

KSZ061>065-074>080-084>089-220500-
SOUTHWEST KANSAS

CITY           SKY/WX    TMP DP  RH WIND       PRES   REMARKS
DODGE CITY     CLEAR     26  15  63 N3        30.40R
GARDEN CITY    CLEAR     28  17  63 E3        30.38S
GREAT BEND     CLOUDY    27  13  55 NE7       30.41R
LIBERAL        CLOUDY    30  22  72 NE3       30.39F
$$

KSZ066>073-081>083-090>101-220500-
SOUTHEAST KANSAS

CITY           SKY/WX    TMP DP  RH WIND       PRES   REMARKS
CHANUTE        CLEAR     32  17  54 N14       30.39R WCI  22
COFFEYVILLE    CLEAR     35  18  49 N15       30.37R WCI  25
HUTCHINSON     CLOUDY    28  11  48 N5        30.41R
MEDICINE LODGE   N/A     29  15  56 N6        30.40R
NEWTON         CLOUDY    27  14  58 NE7       30.38F
PARSONS        CLEAR     33  19  56 N14G20    30.38R WCI  23
WICHITA INTL   CLOUDY    33  14  45 N14       30.38S WCI  23
WICHITA JABRA  CLEAR     29  14  53 N9        30.38F
WICHITA MCCONL CLEAR     31  12  45 NE12      30.37S WCI  22
WINFIELD       CLEAR     32  14  47 NE8       30.39S
$$

KSZ007>012-019>026-033>040-048>060-102>105-220500-
NORTHEAST KANSAS

CITY           SKY/WX    TMP DP  RH WIND       PRES   REMARKS
CONCORDIA      CLOUDY    23  12  62 N6        30.42R
EMPORIA        CLOUDY    26  14  60 N6        30.39S
LAWRENCE       CLEAR     24  16  71 NW8       30.40S
MANHATTAN      CLOUDY    26  13  57 NW3       30.42F
OLATHE IND     CLEAR     27  17  66 NW10      30.39R WCI  17
OLATHE EXE     CLEAR     29  15  56 N12       30.37R WCI  19
SALINA         CLOUDY    31  14  49 NE9       30.42R
TOPEKA BILLARD CLOUDY    26  15  63 NW6       30.41S
TOPEKA FORBES  CLOUDY    29  14  53 N12       30.39S WCI  19
$$




USA.gov is the U.S. government's official web portal to all federal, state and local government web resources and services.